Location: Waldport
(44.4270°N, 124.0680°W)
Time: 05:00:18
(UTC-07:00)

NOSS 3-2 (C) - Pass Details

Date: 23 June 2018
Orbit: 853 x 1359 km, 63.4° (Epoch: 24 June)

Event Time Altitude Azimuth Distance (km) Brightness Sun altitude
Rises 23:14:21 0° 321° (NW) 4,005 8.4 -16.4°
Reaches altitude 10° 23:16:57 10° 319° (NW) 3,109 7.4 -16.7°
Maximum altitude 23:24:28 69° 238° (WSW) 1,353 4.2 -17.3°
Enters shadow 23:29:38 25° 162° (SSE) 2,392 4.9 -17.7°
